| time (UTC) | temp C | wind direction | speed KPH | gust KPH | rain 1hr cm | rain 24hr cm | rain mn cm | humidity % | barometer mb |
| 20260504042017 | 5 | 0 | 0.0 | 0.0 | 0.00 | 0.00 | 0.00 | 73 | 1013.6 |
| 20260504041535 | 5 | 0 | 0.0 | 0.0 | 0.00 | 0.00 | 0.00 | 73 | 1013.6 |
| 20260504041016 | 5 | 0 | 0.0 | 0.0 | 0.00 | 0.00 | 0.00 | 73 | 1013.7 |
| 20260504040519 | 5 | 0 | 0.0 | 0.0 | 0.00 | 0.00 | 0.00 | 73 | 1013.5 |
| 20260504040035 | 5 | 0 | 0.0 | 0.0 | 0.00 | 0.00 | 0.00 | 73 | 1013.6 |
| 20260504035521 | 5 | 0 | 0.0 | 0.0 | 0.00 | 0.00 | 0.00 | 74 | 1013.5 |
| 20260504035021 | 5 | 0 | 0.0 | 0.0 | 0.00 | 0.00 | 0.00 | 75 | 1013.6 |
| 20260504034533 | 5 | 0 | 0.0 | 0.0 | 0.00 | 0.00 | 0.00 | 76 | 1013.6 |
| 20260504034020 | 4 | 0 | 0.0 | 0.0 | 0.00 | 0.00 | 0.00 | 77 | 1013.6 |
| 20260504033519 | 4 | 0 | 0.0 | 0.0 | 0.00 | 0.00 | 0.00 | 77 | 1013.7 |
| 20260504033050 | 4 | 0 | 0.0 | 0.0 | 0.00 | 0.00 | 0.00 | 75 | 1013.7 |
| 20260504032519 | 4 | 0 | 0.0 | 0.0 | 0.00 | 0.00 | 0.00 | 74 | 1013.8 |
| 20260504032017 | 5 | 0 | 0.0 | 0.0 | 0.00 | 0.00 | 0.00 | 74 | 1013.7 |
| 20260504031549 | 5 | 0 | 0.0 | 0.0 | 0.00 | 0.00 | 0.00 | 73 | 1013.7 |
| 20260504031018 | 5 | 0 | 0.0 | 0.0 | 0.00 | 0.00 | 0.00 | 75 | 1013.7 |
| 20260504030519 | 5 | 0 | 0.0 | 0.0 | 0.00 | 0.00 | 0.00 | 75 | 1013.7 |
| 20260504030049 | 5 | 0 | 0.0 | 0.0 | 0.00 | 0.00 | 0.00 | 73 | 1013.8 |
| 20260504025520 | 5 | 0 | 0.0 | 0.0 | 0.00 | 0.00 | 0.00 | 74 | 1013.8 |
| 20260504025019 | 5 | 0 | 0.0 | 0.0 | 0.00 | 0.00 | 0.00 | 74 | 1013.8 |
| 20260504024543 | 5 | 0 | 0.0 | 0.0 | 0.00 | 0.00 | 0.00 | 74 | 1013.8 |
| 20260504024019 | 5 | 0 | 0.0 | 0.0 | 0.00 | 0.00 | 0.00 | 73 | 1013.8 |
| 20260504023519 | 5 | 0 | 0.0 | 0.0 | 0.00 | 0.00 | 0.00 | 72 | 1013.8 |
| 20260504023037 | 5 | 0 | 0.0 | 0.0 | 0.00 | 0.00 | 0.00 | 72 | 1013.9 |
| 20260504022523 | 6 | 0 | 0.0 | 0.0 | 0.00 | 0.00 | 0.00 | 71 | 1013.9 |
| 20260504022020 | 6 | 0 | 0.0 | 0.0 | 0.00 | 0.00 | 0.00 | 70 | 1014.0 |
| 20260504021533 | 6 | 0 | 0.0 | 0.0 | 0.00 | 0.00 | 0.00 | 68 | 1014.1 |
| 20260504021019 | 6 | 0 | 0.0 | 0.0 | 0.00 | 0.00 | 0.00 | 68 | 1014.1 |
| 20260504020520 | 6 | 0 | 0.0 | 0.0 | 0.00 | 0.00 | 0.00 | 67 | 1014.1 |
| 20260504020039 | 6 | 0 | 0.0 | 0.0 | 0.00 | 0.00 | 0.00 | 67 | 1014.0 |
| 20260504015520 | 6 | 0 | 0.0 | 0.0 | 0.00 | 0.00 | 0.00 | 67 | 1014.0 |
| 20260504015021 | 6 | 0 | 0.0 | 0.0 | 0.00 | 0.00 | 0.00 | 66 | 1013.9 |
| 20260504014540 | 7 | 0 | 0.0 | 0.0 | 0.00 | 0.00 | 0.00 | 64 | 1013.9 |
| 20260504014020 | 7 | 0 | 0.0 | 0.0 | 0.00 | 0.00 | 0.00 | 63 | 1013.9 |
| 20260504013522 | 7 | 0 | 0.0 | 0.0 | 0.00 | 0.00 | 0.00 | 62 | 1013.9 |
| 20260504013040 | 7 | 0 | 0.0 | 0.0 | 0.00 | 0.00 | 0.00 | 62 | 1013.9 |
| 20260504012521 | 8 | 0 | 0.0 | 0.0 | 0.00 | 0.00 | 0.00 | 60 | 1013.8 |
| 20260504012025 | 8 | 0 | 0.0 | 0.0 | 0.00 | 0.00 | 0.00 | 60 | 1013.7 |
| 20260504011538 | 8 | 0 | 0.0 | 0.0 | 0.00 | 0.00 | 0.00 | 58 | 1013.7 |
| 20260504011023 | 8 | 0 | 0.0 | 0.0 | 0.00 | 0.00 | 0.00 | 56 | 1013.7 |
| 20260504010519 | 8 | 0 | 0.0 | 0.0 | 0.00 | 0.00 | 0.00 | 57 | 1013.7 |
| 20260504010037 | 8 | 0 | 0.0 | 0.0 | 0.00 | 0.00 | 0.00 | 57 | 1013.7 |
| 20260504005517 | 9 | 0 | 0.0 | 0.0 | 0.00 | 0.00 | 0.00 | 55 | 1013.7 |
| 20260504005020 | 9 | 0 | 0.0 | 0.0 | 0.00 | 0.00 | 0.00 | 54 | 1013.7 |
| 20260504004535 | 10 | 0 | 0.0 | 0.0 | 0.00 | 0.00 | 0.00 | 53 | 1013.7 |
| 20260504004021 | 10 | 0 | 0.0 | 3.2 | 0.00 | 0.00 | 0.00 | 51 | 1013.7 |
| 20260504003517 | 10 | 0 | 0.0 | 3.2 | 0.00 | 0.00 | 0.00 | 50 | 1013.7 |
| 20260504003043 | 11 | 0 | 0.0 | 1.6 | 0.00 | 0.00 | 0.00 | 49 | 1013.7 |
| 20260504002519 | 11 | 0 | 0.0 | 1.6 | 0.00 | 0.00 | 0.00 | 48 | 1013.6 |
| 20260504002021 | 11 | 0 | 0.0 | 1.6 | 0.00 | 0.00 | 0.00 | 48 | 1013.7 |
| 20260504001539 | 11 | 0 | 0.0 | 3.2 | 0.00 | 0.00 | 0.00 | 46 | 1013.6 |
| 20260504001019 | 11 | 0 | 0.0 | 3.2 | 0.00 | 0.00 | 0.00 | 45 | 1013.6 |
| 20260504000519 | 12 | 229 | 0.0 | 3.2 | 0.00 | 0.00 | 0.00 | 45 | 1013.6 |
| 20260504000051 | 12 | 0 | 0.0 | 3.2 | 0.00 | 0.00 | 0.00 | 44 | 1013.6 |
| 20260503235518 | 12 | 0 | 0.0 | 9.7 | 0.00 | 0.00 | 0.00 | 44 | 1013.7 |
| 20260503235020 | 12 | 155 | 0.0 | 9.7 | 0.00 | 0.00 | 0.00 | 43 | 1013.6 |
| 20260503234538 | 12 | 236 | 1.6 | 9.7 | 0.00 | 0.00 | 0.00 | 42 | 1013.6 |
| 20260503234020 | 12 | 224 | 1.6 | 8.0 | 0.00 | 0.00 | 0.00 | 42 | 1013.6 |
| 20260503233521 | 12 | 263 | 1.6 | 9.7 | 0.00 | 0.00 | 0.00 | 41 | 1013.7 |
| 20260503233039 | 13 | 254 | 3.2 | 9.7 | 0.00 | 0.00 | 0.00 | 40 | 1013.7 |
| 20260503232523 | 13 | 308 | 0.0 | 9.7 | 0.00 | 0.00 | 0.00 | 41 | 1013.7 |
| 20260503232017 | 13 | 303 | 3.2 | 9.7 | 0.00 | 0.00 | 0.00 | 40 | 1013.7 |
| 20260503231539 | 13 | 295 | 4.8 | 11.3 | 0.00 | 0.00 | 0.00 | 39 | 1013.7 |
| 20260503231019 | 13 | 278 | 3.2 | 11.3 | 0.00 | 0.00 | 0.00 | 39 | 1013.7 |
| 20260503230519 | 13 | 253 | 3.2 | 17.7 | 0.00 | 0.00 | 0.00 | 40 | 1013.8 |
| 20260503230040 | 13 | 228 | 3.2 | 17.7 | 0.00 | 0.00 | 0.00 | 39 | 1013.7 |
| 20260503225521 | 14 | 117 | 3.2 | 17.7 | 0.00 | 0.00 | 0.00 | 39 | 1013.8 |
| 20260503225023 | 14 | 269 | 3.2 | 14.5 | 0.00 | 0.00 | 0.00 | 38 | 1013.8 |
| 20260503224538 | 14 | 323 | 6.4 | 16.1 | 0.00 | 0.00 | 0.00 | 38 | 1013.8 |
| 20260503224020 | 14 | 349 | 4.8 | 17.7 | 0.00 | 0.00 | 0.00 | 39 | 1013.8 |
| 20260503223517 | 14 | 294 | 3.2 | 17.7 | 0.00 | 0.00 | 0.00 | 37 | 1013.9 |
| 20260503223038 | 14 | 316 | 6.4 | 17.7 | 0.00 | 0.00 | 0.00 | 36 | 1013.9 |
| 20260503222522 | 15 | 257 | 4.8 | 14.5 | 0.00 | 0.00 | 0.00 | 38 | 1013.8 |
| 20260503222017 | 15 | 212 | 3.2 | 12.9 | 0.00 | 0.00 | 0.00 | 39 | 1013.9 |
| 20260503221538 | 14 | 78 | 1.6 | 20.9 | 0.00 | 0.00 | 0.00 | 40 | 1013.9 |
| 20260503221019 | 14 | 296 | 3.2 | 20.9 | 0.00 | 0.00 | 0.00 | 37 | 1014.0 |
| 20260503220519 | 14 | 180 | 8.0 | 24.1 | 0.00 | 0.00 | 0.00 | 38 | 1013.9 |
| 20260503220046 | 15 | 240 | 6.4 | 24.1 | 0.00 | 0.00 | 0.00 | 38 | 1013.9 |
| 20260503215519 | 15 | 135 | 6.4 | 14.5 | 0.00 | 0.00 | 0.00 | 38 | 1013.8 |
| 20260503215021 | 15 | 214 | 1.6 | 11.3 | 0.00 | 0.00 | 0.00 | 38 | 1013.8 |
| 20260503214540 | 15 | 189 | 3.2 | 8.0 | 0.00 | 0.00 | 0.00 | 40 | 1013.8 |
| 20260503214020 | 15 | 321 | 1.6 | 12.9 | 0.00 | 0.00 | 0.00 | 38 | 1013.8 |
| 20260503213520 | 14 | 174 | 3.2 | 12.9 | 0.00 | 0.00 | 0.00 | 39 | 1013.8 |
| 20260503213039 | 15 | 293 | 4.8 | 17.7 | 0.00 | 0.00 | 0.00 | 37 | 1013.8 |
| 20260503212518 | 14 | 276 | 6.4 | 17.7 | 0.00 | 0.00 | 0.00 | 36 | 1013.8 |
| 20260503212018 | 14 | 122 | 3.2 | 12.9 | 0.00 | 0.00 | 0.00 | 38 | 1013.8 |
| 20260503211535 | 14 | 306 | 6.4 | 22.5 | 0.00 | 0.00 | 0.00 | 37 | 1013.7 |
| 20260503211019 | 15 | 283 | 4.8 | 22.5 | 0.00 | 0.00 | 0.00 | 38 | 1013.9 |
| 20260503210517 | 14 | 309 | 6.4 | 16.1 | 0.00 | 0.00 | 0.00 | 37 | 1013.7 |
| 20260503210037 | 14 | 221 | 4.8 | 17.7 | 0.00 | 0.00 | 0.00 | 37 | 1013.8 |
| 20260503205517 | 14 | 235 | 6.4 | 17.7 | 0.00 | 0.00 | 0.00 | 37 | 1014.0 |
| 20260503205017 | 14 | 278 | 4.8 | 24.1 | 0.00 | 0.00 | 0.00 | 41 | 1014.1 |
| 20260503204535 | 14 | 104 | 3.2 | 24.1 | 0.00 | 0.00 | 0.00 | 38 | 1014.2 |
| 20260503204017 | 14 | 268 | 6.4 | 24.1 | 0.00 | 0.00 | 0.00 | 37 | 1014.2 |
| 20260503203521 | 14 | 128 | 4.8 | 14.5 | 0.00 | 0.00 | 0.00 | 39 | 1014.1 |
| 20260503203041 | 14 | 248 | 4.8 | 24.1 | 0.00 | 0.00 | 0.00 | 38 | 1014.1 |
| 20260503202519 | 14 | 302 | 3.2 | 24.1 | 0.00 | 0.00 | 0.00 | 39 | 1014.2 |
| 20260503202019 | 14 | 286 | 11.3 | 24.1 | 0.00 | 0.00 | 0.00 | 37 | 1014.2 |
| 20260503201544 | 14 | 193 | 3.2 | 14.5 | 0.00 | 0.00 | 0.00 | 40 | 1014.2 |
| 20260503201019 | 14 | 94 | 6.4 | 14.5 | 0.00 | 0.00 | 0.00 | 38 | 1014.4 |
| 20260503200519 | 14 | 294 | 4.8 | 12.9 | 0.00 | 0.00 | 0.00 | 41 | 1014.2 |
| 20260503200039 | 14 | 330 | 4.8 | 17.7 | 0.00 | 0.00 | 0.00 | 39 | 1014.4 |
| 20260503195520 | 14 | 326 | 8.0 | 17.7 | 0.00 | 0.00 | 0.00 | 39 | 1014.5 |
| 20260503195018 | 13 | 349 | 4.8 | 17.7 | 0.00 | 0.00 | 0.00 | 40 | 1014.6 |
| 20260503194538 | 13 | 330 | 4.8 | 17.7 | 0.00 | 0.00 | 0.00 | 38 | 1014.6 |
| 20260503194019 | 13 | 131 | 6.4 | 17.7 | 0.00 | 0.00 | 0.00 | 40 | 1014.7 |
| 20260503193521 | 13 | 303 | 4.8 | 12.9 | 0.00 | 0.00 | 0.00 | 39 | 1014.7 |
| 20260503193036 | 13 | 340 | 6.4 | 17.7 | 0.00 | 0.00 | 0.00 | 41 | 1014.8 |
| 20260503192518 | 13 | 346 | 6.4 | 17.7 | 0.00 | 0.00 | 0.00 | 44 | 1014.9 |
| 20260503192019 | 13 | 301 | 8.0 | 17.7 | 0.00 | 0.00 | 0.00 | 39 | 1015.1 |
| 20260503191535 | 13 | 260 | 4.8 | 16.1 | 0.00 | 0.00 | 0.00 | 40 | 1015.2 |
| 20260503191021 | 13 | 283 | 3.2 | 24.1 | 0.00 | 0.00 | 0.00 | 41 | 1015.1 |
| 20260503190518 | 13 | 310 | 6.4 | 24.1 | 0.00 | 0.00 | 0.00 | 38 | 1015.2 |
| 20260503190034 | 13 | 277 | 8.0 | 24.1 | 0.00 | 0.00 | 0.00 | 38 | 1015.3 |
| 20260503185518 | 14 | 297 | 3.2 | 14.5 | 0.00 | 0.00 | 0.00 | 43 | 1015.4 |
| 20260503185018 | 13 | 243 | 3.2 | 16.1 | 0.00 | 0.00 | 0.00 | 43 | 1015.4 |
| 20260503184600 | 14 | 301 | 4.8 | 22.5 | 0.00 | 0.00 | 0.00 | 42 | 1015.5 |
| 20260503184018 | 13 | 210 | 6.4 | 22.5 | 0.00 | 0.00 | 0.00 | 41 | 1015.6 |
| 20260503183518 | 14 | 221 | 4.8 | 16.1 | 0.00 | 0.00 | 0.00 | 40 | 1015.6 |
| 20260503183040 | 14 | 24 | 3.2 | 17.7 | 0.00 | 0.00 | 0.00 | 39 | 1015.5 |
| 20260503182519 | 13 | 314 | 6.4 | 17.7 | 0.00 | 0.00 | 0.00 | 39 | 1015.6 |
| 20260503182018 | 13 | 326 | 6.4 | 17.7 | 0.00 | 0.00 | 0.00 | 39 | 1015.7 |
| 20260503181536 | 13 | 210 | 6.4 | 17.7 | 0.00 | 0.00 | 0.00 | 43 | 1015.6 |
| 20260503181022 | 13 | 333 | 4.8 | 17.7 | 0.00 | 0.00 | 0.00 | 41 | 1015.7 |
| 20260503180519 | 13 | 329 | 6.4 | 17.7 | 0.00 | 0.00 | 0.00 | 43 | 1015.8 |
| 20260503180037 | 12 | 330 | 3.2 | 19.3 | 0.00 | 0.00 | 0.00 | 42 | 1015.8 |
| 20260503175519 | 12 | 150 | 6.4 | 19.3 | 0.00 | 0.00 | 0.00 | 41 | 1015.9 |
| 20260503175018 | 12 | 330 | 8.0 | 19.3 | 0.00 | 0.00 | 0.00 | 40 | 1016.0 |
| 20260503174534 | 12 | 219 | 4.8 | 19.3 | 0.00 | 0.00 | 0.00 | 42 | 1016.1 |
| 20260503174021 | 12 | 309 | 6.4 | 17.7 | 0.00 | 0.00 | 0.00 | 45 | 1016.0 |
| 20260503173518 | 12 | 292 | 8.0 | 17.7 | 0.00 | 0.00 | 0.00 | 43 | 1016.1 |
| 20260503173037 | 12 | 285 | 6.4 | 16.1 | 0.00 | 0.00 | 0.00 | 41 | 1016.2 |
| 20260503172519 | 12 | 313 | 3.2 | 19.3 | 0.00 | 0.00 | 0.00 | 42 | 1016.1 |
| 20260503172017 | 12 | 269 | 6.4 | 24.1 | 0.00 | 0.00 | 0.00 | 43 | 1016.3 |
| 20260503171602 | 12 | 233 | 8.0 | 24.1 | 0.00 | 0.00 | 0.00 | 40 | 1016.3 |
| 20260503171021 | 12 | 189 | 6.4 | 16.1 | 0.00 | 0.00 | 0.00 | 40 | 1016.1 |
| 20260503170520 | 12 | 8 | 4.8 | 20.9 | 0.00 | 0.00 | 0.00 | 40 | 1016.4 |
| 20260503150521 | 10 | 233 | 4.8 | 14.5 | 0.00 | 0.00 | 0.00 | 48 | 1017.4 |
| 20260503131018 | 6 | 269 | 1.6 | 8.0 | 0.00 | 0.00 | 0.00 | 70 | 1017.6 |
| 20260503130520 | 6 | 200 | 1.6 | 8.0 | 0.00 | 0.00 | 0.00 | 73 | 1017.6 |
| 20260503110519 | 0 | 0 | 0.0 | 0.0 | 0.00 | 0.00 | 0.00 | 95 | 1017.1 |
| 20260503081539 | 0 | 0 | 0.0 | 0.0 | 0.00 | 0.00 | 0.00 | 93 | 1016.0 |
| 20260503081018 | 0 | 0 | 0.0 | 0.0 | 0.00 | 0.00 | 0.00 | 93 | 1016.0 |
| 20260503080522 | 0 | 0 | 0.0 | 0.0 | 0.00 | 0.00 | 0.00 | 93 | 1016.0 |
| 20260503072521 | 0 | 0 | 0.0 | 0.0 | 0.00 | 0.00 | 0.00 | 94 | 1015.9 |
| 20260503072018 | 0 | 0 | 0.0 | 0.0 | 0.00 | 0.00 | 0.00 | 94 | 1015.8 |
| 20260503071558 | 0 | 0 | 0.0 | 0.0 | 0.00 | 0.00 | 0.00 | 93 | 1015.8 |
| 20260503071020 | 0 | 0 | 0.0 | 0.0 | 0.00 | 0.00 | 0.00 | 94 | 1015.8 |
| 20260503070517 | 0 | 0 | 0.0 | 0.0 | 0.00 | 0.00 | 0.00 | 94 | 1015.7 |
| 20260503055017 | -1 | 0 | 0.0 | 0.0 | 0.00 | 0.00 | 0.00 | 92 | 1015.8 |
| 20260503054548 | -1 | 0 | 0.0 | 0.0 | 0.00 | 0.00 | 0.00 | 92 | 1015.8 |
| 20260503054021 | -1 | 0 | 0.0 | 0.0 | 0.00 | 0.00 | 0.00 | 92 | 1015.8 |
| 20260503053518 | -1 | 0 | 0.0 | 0.0 | 0.00 | 0.00 | 0.00 | 92 | 1015.9 |
| 20260503053040 | -1 | 0 | 0.0 | 0.0 | 0.00 | 0.00 | 0.00 | 92 | 1015.9 |
| 20260503052521 | 0 | 0 | 0.0 | 0.0 | 0.00 | 0.00 | 0.00 | 92 | 1015.9 |
| 20260503052018 | 0 | 0 | 0.0 | 0.0 | 0.00 | 0.00 | 0.00 | 92 | 1016.0 |
| 20260503051534 | 0 | 0 | 0.0 | 0.0 | 0.00 | 0.00 | 0.00 | 92 | 1016.0 |
| 20260503051017 | 0 | 0 | 0.0 | 0.0 | 0.00 | 0.00 | 0.00 | 92 | 1016.0 |
| 20260503050522 | 0 | 0 | 0.0 | 0.0 | 0.00 | 0.00 | 0.00 | 92 | 1016.1 |
| 20260503050045 | 0 | 0 | 0.0 | 0.0 | 0.00 | 0.00 | 0.00 | 91 | 1016.1 |
| 20260503045520 | 0 | 0 | 0.0 | 0.0 | 0.00 | 0.00 | 0.00 | 91 | 1016.2 |
| 20260503045017 | 0 | 0 | 0.0 | 0.0 | 0.00 | 0.00 | 0.00 | 91 | 1016.1 |
| 20260503044549 | 0 | 0 | 0.0 | 0.0 | 0.00 | 0.00 | 0.00 | 91 | 1016.1 |
| 20260503044017 | 0 | 0 | 0.0 | 0.0 | 0.00 | 0.00 | 0.00 | 91 | 1016.1 |
| 20260503043519 | 0 | 0 | 0.0 | 0.0 | 0.00 | 0.00 | 0.00 | 91 | 1016.1 |
| 20260503043045 | 0 | 0 | 0.0 | 0.0 | 0.00 | 0.00 | 0.00 | 91 | 1016.1 |
| 20260503042518 | 0 | 0 | 0.0 | 0.0 | 0.00 | 0.00 | 0.00 | 90 | 1016.1 |